Regional Weather Roundup
Issued by NWS

Home | Current Version | Previous Version | Text Only | Print | Product List | Glossary Off
Versions: 1 2 3 4 5 6 7 8 9 10 11 12 13 14 15 16 17 18 19 20 21 22 23 24 25 26 27 28 29 30 31 32 33 34 35 36 37 38 39 40 41 42 43 44 45 46 47 48 49 50

000
ASUS43 KMPX 150410
RWRMN
WEATHER ROUNDUP FOR MINNESOTA
NATIONAL WEATHER SERVICE TWIN CITIES/CHANHASSEN MN
1000 PM CST THU DEC 14 2017


NOTE: "FAIR" INDICATES FEW OR NO CLOUDS BELOW 12,000 FEET WITH NO
SIGNIFICANT WEATHER AND/OR OBSTRUCTIONS TO VISIBILITY. N/A MEANS
CURRENT SKY AND/OR WEATHER CONDITIONS ARE NOT AVAILABLE.

MNZ060>063-068>070-150500-
   Twin Cities Metro

CITY           SKY/WX    TMP DP  RH WIND       PRES   REMARKS
TWIN CITIES    CLOUDY    23  17  78 NW14      30.00F WCI  11
ST PAUL        CLOUDY    23  15  71 NW14      30.01F WCI  11
CRYSTAL        CLOUDY    22  13  68 NW15      29.99F WCI   9
BLAINE         CLOUDY    23  16  74 W14G21    29.98F WCI  11
LAKEVILLE      CLOUDY    21  18  86 W8        30.00S WCI  12
EDEN PRAIRIE   CLOUDY    24  16  71 W14G20    29.99F WCI  12
SOUTH ST PAUL  CLOUDY    24  16  71 NW15      30.00S WCI  11
LAKE ELMO      CLOUDY    23  18  80 NW9       29.99F WCI  13
$$
MNZ001>005-007-008-013>017-022>024-027-028-150500-
   Northwest Minnesota

CITY           SKY/WX    TMP DP  RH WIND       PRES   REMARKS
BEMIDJI        LGT SNOW  13  10  87 W6        29.94F WCI   4
HALLOCK        CLOUDY    18  14  86 N8        30.01F WCI   7
ROSEAU         FLURRIES  12   9  85 NW10      29.98S WCI  -1
WARROAD        CLEAR      9   5  85 NW7       29.97S WCI  -3
THIEF RVR FALL CLOUDY    16  14  92 W6        29.99F WCI   7
CROOKSTON      CLOUDY    18  18 100 W6        30.02F WCI   9
FOSSTON        LGT SNOW  12  10  92 W6        29.98S WCI   3
DETROIT LAKES  FLURRIES  18  16  93 CALM      29.98F
MOORHEAD       CLOUDY    21  18  86 CALM      30.00F
PARK RAPIDS    CLOUDY    15  11  83 W6        29.94F WCI   6
MAHNOMEN       CLOUDY    16  13  91 CALM      29.99R
$$
MNZ006-009>011-018-025>026-150500-
   North Central Minnesota

CITY           SKY/WX    TMP DP  RH WIND       PRES   REMARKS
BAUDETTE       LGT SNOW  12   9  87 NW15      29.93S FOG     WCI  -4
FLAG ISLAND    FLURRIES  10   7  85 NW13      29.94S WCI  -5
INTL FALLS     LGT SNOW  11   6  81 NW7       29.90F WCI   0
WASKISH        FLURRIES  12  10  92 W6        29.94S WCI   3
BIG FORK       FLURRIES  12   7  79 W6        29.91F WCI   3
LONGVILLE      FLURRIES  14   9  79 W6        29.94F WCI   5
GRAND RAPIDS   FLURRIES  13   8  81 NW13      29.93F WCI  -2
CRANE LAKE     LGT SNOW   9   7  92 CALM      29.91F
ORR            FLURRIES  10   5  79 NW8       29.86F WCI  -1
COOK           LGT SNOW  10   7  85 W6        29.88F WCI   1
WALKER         LGT SNOW  13   9  85 W5        29.94F WCI   5
$$
MNZ012-019>021-037-150500-
   Northeast Minnesota

CITY           SKY/WX    TMP DP  RH WIND       PRES   REMARKS
DULUTH         LGT SNOW  12   8  84 NW10      29.87F FOG     WCI  -1
ELY            LGT SNOW   9   5  85 NW7       29.85F WCI  -3
HIBBING        CLOUDY    11   5  77 NW15      29.89F WCI  -5
EVELETH        LGT SNOW  12   6  76 W7        29.89F WCI   2
DULUTH HARBOR  CLOUDY    18  10  73 W6        29.95F WCI   9
TWO HARBORS    FLURRIES  18  10  73 W7        29.85F WCI   8
GRAND MARAIS     N/A     18  10  71 VRB7      29.86F WCI   9
G MARAIS ARPRT FLURRIES  10   3  72 W7        29.77F WCI   0
$$
MNZ029>031-032-039>041-046>048-054>057-064-150500-
   West Central Minnesota

CITY           SKY/WX    TMP DP  RH WIND       PRES   REMARKS
FERGUS FALLS   CLOUDY    21  21 100 CALM      30.02F
WHEATON        CLOUDY    27  23  86 W8        30.02F WCI  18
MORRIS         CLOUDY    25  21  86 CALM      29.99F
ALEXANDRIA     CLOUDY    21  19  92 W6        29.98F WCI  13
ELBOW LAKE     CLOUDY    22  21  95 CALM      29.99F
WADENA         FLURRIES  16  12  86 W3        29.96F
GLENWOOD       PTCLDY    21  19  93 W7        29.99F WCI  13
APPLETON       CLOUDY    27  21  80 W8        30.02F WCI  18
BENSON         CLOUDY    25  19  80 W5        30.02F WCI  19
ORTONVILLE     CLOUDY    28  23  80 NW7       30.01F WCI  21
MADISON        CLOUDY    30  25  80 W7        30.03F WCI  23
WILLMAR        FLURRIES  25  21  86 W7        30.02F WCI  17
$$
MNZ033>034-036-042>043-049>051-058-059-150500-
   Central Minnesota

CITY           SKY/WX    TMP DP  RH WIND       PRES   REMARKS
ST CLOUD       CLOUDY    20  14  77 NW10      29.99F WCI   9
SAUK CENTRE    CLOUDY    20  18  91 W6        29.99F WCI  13
PAYNESVILLE    FLURRIES  22  20  92 W8        30.01S WCI  12
AITKIN         FLURRIES  16  10  79 NW6       29.93S WCI   7
PINE RIVER     FLURRIES  14   9  79 NW5       29.98F WCI   6
BRAINERD       CLOUDY    19  11  70 NW12      29.95F WCI   7
STAPLES        FLURRIES  16  12  86 W6        29.97F WCI   7
LONG PRAIRIE   FLURRIES  19  18  93 W5        29.99F WCI  13
LITTLE FALLS   FLURRIES  21  12  68 W9        29.98F WCI  11
LITCHFIELD     FLURRIES  25  19  80 NW7       30.01F WCI  17
BUFFALO        CLOUDY    22  15  74 W7        30.01F WCI  14
MAPLE LAKE     CLOUDY    23  18  80 NW8       30.01F WCI  14
HUTCHINSON     CLOUDY    24  20  85 W7        30.02F WCI  16
$$
MNZ037-044-045-052-053-150500-
   East Central Minnesota

CITY           SKY/WX    TMP DP  RH WIND       PRES   REMARKS
PRINCETON      CLOUDY    21  16  79 W10G16    29.97F WCI  10
MORA           FLURRIES  19  14  79 NW7       29.97S WCI  10
CAMBRIDGE      FLURRIES  21  12  68 W7        29.97F WCI  13
RUSH CITY      FLURRIES  20  14  79 W5        29.96F WCI  13
MOOSE LAKE     FLURRIES  18  10  73 NW9G18    29.92S WCI   6
HINCKLEY       FLURRIES  21  18  86 W8        29.93F WCI  12
CLOQUET        LGT SNOW  14   9  79 NW7       29.89F WCI   4
MCGREGOR       CLOUDY    18  10  73 NW8G17    29.93F WCI   7
$$
MNZ071>073-080-081-089-090-097-098-150500-
   Southwest Minnesota

CITY           SKY/WX    TMP DP  RH WIND       PRES   REMARKS
MONTEVIDEO     CLOUDY    27  21  80 W5        30.03F WCI  21
GRANITE FALLS  CLOUDY    28  23  83 W8        30.05F WCI  20
CANBY          CLOUDY    30  25  83 NW8       30.05F WCI  22
MARSHALL       CLOUDY    25  23  92 W7        30.05F WCI  17
REDWOOD FALLS  CLOUDY    26  22  84 W9        30.04F WCI  17
OLIVIA         LGT SNOW  27  21  80 W7        30.02F WCI  19
PIPESTONE      CLOUDY    25  21  86 W8        30.05S WCI  16
WINDOM           N/A     25  12  58 W9        30.04F WCI  15
WORTHINGTON    CLOUDY    24  22  91 W7        30.06F WCI  16
JACKSON        CLOUDY    27  21  80 MISG      30.06S
SLAYTON        CLOUDY    26  23  90 W8        30.04F WCI  17
$$
MNZ065>067-074>077-082>085-091>093-150500-
   South Central Minnesota

CITY           SKY/WX    TMP DP  RH WIND       PRES   REMARKS
MANKATO        FLURRIES  25  19  80 W12       30.03F WCI  14
NEW ULM        FLURRIES  25  19  80 W8        30.04F WCI  16
ST JAMES       FLURRIES  25  19  80 W9        30.06S WCI  15
FAIRMONT       MOCLDY    25  19  78 NW13      30.06S WCI  14
GLENCOE        CLOUDY    25  19  79 NW10G18   30.02S WCI  15
FARIBAULT      MOCLDY    23  18  80 W9        30.01F WCI  13
OWATONNA       CLOUDY    23  18  80 NW14      30.01S WCI  11
WASECA         CLOUDY    23  19  86 W10       30.04S WCI  12
ALBERT LEA     CLOUDY    25  18  74 NW10G18   30.02S WCI  15
$$
MNZ078>079-086>088-094>096-150500-
   Southeast Minnesota

CITY           SKY/WX    TMP DP  RH WIND       PRES   REMARKS
ROCHESTER      CLOUDY    21  18  88 W13       29.98F WCI   9
RED WING       FLURRIES  23  16  74 W6        29.99F WCI  16
STANTON        CLOUDY    25  19  77 W12       29.99F WCI  14
DODGE CENTER   CLOUDY    21  18  86 W10       29.99S WCI  10
WINONA           N/A     23  18  80 NW6       30.01F WCI  16
AUSTIN         CLOUDY    23  18  80 NW22G29   30.01S WCI   8
PRESTON        CLOUDY    21  17  83 NW9       29.99F WCI  11
$$
ABBREVIATIONS USED IN REMARKS
   TC - TEMPERATURES IN CELSIUS
  WCI - WIND CHILL INDEX
   HX - HEAT INDEX
  VSB - VISIBILITY
$$




USA.gov is the U.S. government's official web portal to all federal, state and local government web resources and services.